User: anonymous
Location: Fort Wayne
(41.1310°N, 85.1290°W)
Time: 14:16:32
(UTC-04:00)
Language:

ISS - Orbit

View from above orbital plane
View from above orbital plane
View from above satellite
View from above satellite

Ground track
Ground track

The orbit data is extracted from the following two-line orbital elements,

1 25544U 98067A   14265.56327330  .00010518  00000-0  18841-3 0  1315
2 25544 051.6468 336.9473 0002256 114.9184 321.0953 15.50543096906433
Epoch (UTC): 22 September 2014 13:31:06
Eccentricity: 0.0002256
inclination: 51.6468°
perigee height: 413 km
apogee height: 416 km
right ascension of ascending node: 336.9473°
argument of perigee: 114.9184°
revolutions per day: 15.50543096
mean anomaly at epoch: 321.0953°
orbit number at epoch: 90643

The dashed part of the orbit path shows where the satellite is in the earth's shadow,  

DLR